Weather History for Hurlburt Field, FL

Change the Weather History Date:

Thursday, February 28, 2013

  Actual Average Record
Temperature  
Mean Temperature 54 °F -  
Max Temperature 61 °F 64 °F 73 °F (1998)
Min Temperature 46 °F 47 °F 21 °F (2002)
Degree Days  
Heating Degree Days 12    
Growing Degree Days 4 (Base 50)    
Moisture  
Dew Point 40 °F    
Average Humidity 63    
Maximum Humidity 95    
Minimum Humidity 41    
Precipitation  
Precipitation 0.00 in - - ()
Sea Level Pressure  
Sea Level Pressure 30.01 in    
Wind  
Wind Speed 9 mph (NNW)    
Max Wind Speed 15 mph    
Max Gust Speed 22 mph    
Visibility 10 miles    
Events Rain    
Averages and records for this station are not official NWS values.
T = Trace of Precipitation, MM = Missing Value Source: NWS Daily Summary

Daily Weather History Graph

Daily Weather History Graph

Search for Another Location

Airport:

Trip Planner

Search our weather history database for the weather conditions in past years. The results will help you decide how hot, cold, wet, or windy it might be!

Date:

Astronomy

Feb. 28, 2013 Rise Set
Actual Time 6:13 AM CST 5:45 PM CST
Civil Twilight 5:49 AM CST 6:09 PM CST
Nautical Twilight 5:21 AM CST 6:37 PM CST
Astronomical Twilight 4:53 AM CST 7:04 PM CST
Moon 8:52 PM CST (2/28) 7:39 AM CST (2/28)
Length of Visible Light 12h 19m
Length of Day
11h 31m
Waning Gibbous, 90% of the Moon is Illuminated
Feb 28
Waning Gibbous
Mar 4
Last Quarter
Mar 11
New
Mar 19
First Quarter
Mar 27
Full

Hourly Weather History & Observations

Time (CST) Temp. Windchill Dew Point Humidity Pressure Visibility Wind Dir Wind Speed Gust Speed Precip Events Conditions
12:58 AM 53.6 °F - 51.1 °F 91% 29.97 in 10.0 mi NNW 5.8 mph - N/A   Clear
1:58 AM 52.2 °F - 50.7 °F 95% 29.96 in 10.0 mi NW 6.9 mph - N/A   Clear
2:59 AM 50.5 °F - 47.3 °F 89% 29.96 in 10.0 mi NNW 9.2 mph - N/A   Partly Cloudy
3:58 AM 49.6 °F - 44.4 °F 82% 29.96 in 10.0 mi NNW 8.1 mph - N/A   Mostly Cloudy
4:58 AM 48.4 °F - 42.6 °F 80% 29.98 in 10.0 mi North 9.2 mph - N/A   Clear
5:58 AM 46.6 °F - 41.5 °F 83% 30.01 in 10.0 mi North 13.8 mph - N/A   Clear
6:58 AM 46.4 °F 40.7 °F 41.4 °F 83% 30.04 in 10.0 mi North 12.7 mph - N/A   Clear
7:59 AM 49.8 °F - 39.4 °F 67% 30.06 in 10.0 mi North 10.4 mph - N/A   Clear
8:58 AM 52.9 °F - 37.4 °F 56% 30.06 in 10.0 mi North 15.0 mph 21.9 mph N/A   Clear
9:31 AM 55.4 °F - 39.2 °F 54% 30.05 in 10.0 mi NNW 12.7 mph 19.6 mph N/A Rain Light Rain
9:55 AM 55.4 °F - 37.4 °F 51% 30.04 in 10.0 mi NNW 13.8 mph - N/A   Clear
10:58 AM 57.9 °F - 39.2 °F 50% 30.05 in 10.0 mi NW 12.7 mph - N/A   Clear
11:58 AM 59.0 °F - 39.9 °F 49% 30.03 in 10.0 mi NNW 13.8 mph 19.6 mph N/A   Mostly Cloudy
12:58 PM 58.8 °F - 40.3 °F 50% 30.00 in 10.0 mi WNW 10.4 mph - N/A   Overcast
1:22 PM 60.8 °F - 39.2 °F 45% 29.99 in 10.0 mi WNW 13.8 mph 18.4 mph N/A   Mostly Cloudy
1:58 PM 61.2 °F - 40.3 °F 46% 29.99 in 10.0 mi WNW 10.4 mph 17.3 mph N/A   Mostly Cloudy
2:58 PM 60.6 °F - 36.7 °F 41% 29.98 in 10.0 mi WNW 11.5 mph - N/A   Scattered Clouds
3:58 PM 58.3 °F - 37.6 °F 46% 29.98 in 10.0 mi NNW 9.2 mph - N/A   Overcast
4:58 PM 56.7 °F - 38.8 °F 51% 29.99 in 10.0 mi North 9.2 mph - N/A   Mostly Cloudy
5:58 PM 54.5 °F - 37.4 °F 52% 29.99 in 10.0 mi NNW 9.2 mph - N/A   Overcast
6:58 PM 52.9 °F - 39.2 °F 60% 30.00 in 10.0 mi North 6.9 mph - N/A   Overcast
7:58 PM 51.8 °F - 37.6 °F 58% 30.02 in 10.0 mi NNW 10.4 mph - N/A   Overcast
8:58 PM 50.7 °F - 37.2 °F 60% 30.03 in 10.0 mi NNW 6.9 mph - N/A   Mostly Cloudy
9:58 PM 50.2 °F - 37.8 °F 62% 30.05 in 10.0 mi NW 6.9 mph - N/A   Overcast
10:58 PM 49.5 °F - 37.9 °F 65% 30.05 in 10.0 mi NW 6.9 mph - N/A   Overcast
11:58 PM 48.7 °F - 37.9 °F 66% 30.06 in 10.0 mi NW 8.1 mph - N/A   Overcast